Regional Weather Roundup
Issued by NWS

Home | Current Version | Previous Version | Text Only | Print | Product List | Glossary Off
Versions: 1 2 3 4 5 6 7 8 9 10 11 12 13 14 15 16 17 18 19 20 21 22 23 24 25 26 27 28 29 30 31 32 33 34 35 36 37 38 39 40 41 42 43 44 45 46 47 48 49 50

000
ASUS45 KTFX 301510
RWRMT
MONTANA REGIONAL WEATHER ROUNDUP
NATIONAL WEATHER SERVICE GREAT FALLS MT
900 AM MDT SUN AUG 30 2015

NOTE: "FAIR" INDICATES FEW OR NO CLOUDS BELOW 12000 FEET WITH NO
SIGNIFICANT WEATHER AND/OR OBSTRUCTIONS TO VISIBILITY.

MTZ001>007-043-301600-
WEST OF THE DIVIDE

CITY           SKY/WX    TMP DP  RH WIND       PRES   REMARKS
KALISPELL      MOSUNNY   61  51  70 S12       29.87S
MISSOULA       CLOUDY    57  51  80 CALM      29.91S
BUTTE          MOSUNNY   57  47  69 S5        29.99S
MULLAN PASS    CLOUDY    47  39  74 VRB3      29.97R
DEER LODGE       N/A     57  52  82 NE5       29.97S
EUREKA           N/A     63  43  48 SE9       29.85
HAMILTON         N/A     59  54  82 SW2       29.92R
LIBBY            N/A     54  46  76 CALM      29.86S
$$

MTZ008-052>055-301600-
SOUTHWEST MONTANA

CITY           SKY/WX    TMP DP  RH WIND       PRES   REMARKS
BOZEMAN        LGT RAIN  58  51  78 E9        29.94F
DILLON         MOSUNNY   61  48  62 E6        29.97R
W YELLOWSTONE  PTSUNNY   57  50  77 SW7       30.12R
$$

MTZ009-010-012-014-046-048-049-054-301600-
EAST SLOPES AND CENTRAL MONTANA

CITY           SKY/WX    TMP DP  RH WIND       PRES   REMARKS
CUT BANK       CLOUDY    61  40  45 W21G32    29.83S
GREAT FALLS    CLOUDY    62  52  69 S8        29.83R HAZE
HELENA         CLOUDY    61  52  72 N6        29.91R HAZE
CONRAD           N/A     60  54  80 SW2       29.88R
$$

MTZ011-013-016-021-045-047-050-051-301600-
NORTH CENTRAL MONTANA

CITY           SKY/WX    TMP DP  RH WIND       PRES   REMARKS
HAVRE          LGT RAIN  63  51  65 MISG      29.80F
LEWISTOWN      LGT RAIN  60  54  80 S8        29.96R
N BAR RANCH    LGT RAIN  57  52  82 NW18G32   29.97R
CHINOOK          N/A     63  54  72 SW6       29.81R
FORT BENTON      N/A     64  54  68 CALM      29.81F
$$

MTZ017>020-022>027-061-062-301600-
NORTHEAST MONTANA

CITY           SKY/WX    TMP DP  RH WIND       PRES   REMARKS
GLASGOW        PTSUNNY   76  46  34 NE12      29.69S HAZE
JORDAN           N/A     74  50  42 N9        29.74S
SIDNEY         PTSUNNY   75  55  50 S8        29.66R
WOLF POINT     CLOUDY    69  53  56 W8        29.72R HAZE
MALTA            N/A     62  53  72 W13       29.79R
PLENTYWOOD       N/A     77  52  41 NW14      29.68F
POPLAR           N/A     73  52  46 SW6       29.70R
$$

MTZ028>42-056>058-301600-
SOUTHCENTRAL AND SOUTHEAST MONTANA

CITY           SKY/WX    TMP DP  RH WIND       PRES   REMARKS
BAKER          PTSUNNY   79  44  28 W13       29.75R
BILLINGS       CLOUDY    76  45  33 NW23G29   29.87R
LIVINGSTON     LGT RAIN  63  52  67 NW7       30.00S
MILES CITY     CLOUDY    74  47  38 SW12      29.72R
FORSYTH          N/A     73  48  40 SW8       29.75R
LAUREL           N/A     76  45  33 W22       29.90R
$$

REGIONAL REPORTS...DAKOTAS

CITY           SKY/WX    TMP DP  RH WIND       PRES   REMARKS
CROSBY           N/A     77  55  47 S8        29.62F
FARGO          SUNNY     70  63  78 S14       29.82F
BUFFALO SD       N/A     73  51  46 S5        29.73R
RAPID CITY     MOSUNNY   75  53  46 S10       29.83F
$$

REGIONAL REPORTS...WYOMING/IDAHO/WASHINGTON

CITY           SKY/WX    TMP DP  RH WIND       PRES   REMARKS
GILLETTE       PTSUNNY   79  36  21 SW5       29.90R
SHERIDAN       CLOUDY    71  47  42 S6        29.85R
BUFFALO WY     CLOUDY    76  41  28 S7        29.94R
CODY           PTSUNNY   72  48  43 S10       29.93R
YELLOWSTONE LA   N/A     56  49  77 CALM      30.19R
IDAHO FALLS    MOSUNNY   64  50  60 SW12      30.03R
SALMON         SUNNY     68  45  42 E9        29.92S
BOISE          SUNNY     63  44  50 CALM      29.99R
SPOKANE        LGT RAIN  56  48  74 SW12      29.87R
$$

REGIONAL REPORTS...ALBERTA

CITY           SKY/WX    TMP DP  RH WIND       PRES   REMARKS
EDMONTON       SUNNY     59  48  67 SE3       29.49S
CALGARY        MOSUNNY   57  39  51 S12       29.63F
LETHBRIDGE     PTSUNNY   63  39  42 SW16      29.73S
MEDICINE HAT   CLOUDY    66  45  45 S12G17    29.71F
WATERTON GATE    N/A     61  34  36 SW14G25     N/A
MILK RIVER       N/A     61  41  48 SW10        N/A
$$

REGIONAL REPORTS...SASKATCHEWAN

CITY           SKY/WX    TMP DP  RH WIND       PRES   REMARKS
SWIFT CURRENT  MOSUNNY   68  45  42 W7        29.71R
REGINA         PTSUNNY   68  55  64 NW7G18    29.67R SMOKE
SASKATOON      CLOUDY    64  52  63 SW10      29.61S SMOKE
CYPRESS HILLS    N/A     61  39  44 SW9         N/A
VAL MARIE        N/A     63  55  77 SW8         N/A
ROCKGLEN         N/A     66  46  48 NW13G18     N/A
$$


USA.gov is the U.S. government's official web portal to all federal, state and local government web resources and services.